#timestamp,LO_Frequency,Hit,StdDev 
1673888415.7,286047003.4,N
1673888435.5,286047003.2,N
1673888455.3,286047002.9,N
1673888475.2,286047005.5,N
1673888495.0,286047005.8,N
1673888495.9,286047005.8,N
1673888515.7,286047003.4,N
1673888535.6,286047004.7,N
1673888555.4,286047007.5,N
1673888575.2,286047004.6,N
1673888595.1,286047007.3,N
1673888596.0,286047007.3,N
1673888615.8,286047005.0,N
1673888635.6,286047005.0,N
1673888655.5,286047005.7,N
1673888675.3,286047004.5,N
1673888695.1,286047007.3,N
1673888715.9,286047007.5,Y
1673888735.7,286047002.5,P
1673888755.5,286047002.2,N
1673888775.4,286047004.2,P
1673888795.2,286047001.3,N
1673888815.0,286047006.0,Y
1673888816.0,286047006.0,P
1673888835.8,286046999.9,N
1673888855.6,286047002.3,N
1673888875.4,286047002.2,N
1673888895.3,286047002.2,N
1673888915.1,286047004.2,N
1673888935.8,286047004.1,N
1673888955.7,286047001.9,N
1673888975.5,286047004.4,N
1673888995.3,286047004.2,N
1673889015.2,286047004.3,N
1673889035.0,286047003.2,N
1673889035.9,286047003.2,N
1673889055.7,286047003.0,N
1673889075.6,286047005.6,Y
1673889095.4,286047004.1,P
1673889115.3,286047003.5,P
1673889135.1,286047004.8,P
1673889136.0,286047004.8,Y
1673889155.8,286047002.1,P
1673889175.7,286047002.0,N
1673889195.5,286047000.5,N
1673889215.3,286047000.4,N
1673889235.2,286047000.5,N
1673889255.9,286047001.1,N
1673889275.7,286046999.9,N
1673889295.6,286047000.1,N
1673889315.4,286047000.2,N
1673889335.2,286047000.1,N
1673889355.1,286047000.6,N
1673889356.0,286047000.6,N
1673889375.8,286047000.3,N
1673889395.6,286046999.9,N
1673889415.5,286047000.6,N
1673889435.3,286046999.7,N
1673889455.1,286047002.3,N
1673889475.9,286047000.3,N
1673889495.7,286047002.7,N
1673889515.5,286047002.3,N
1673889535.4,286047001.7,N
1673889555.2,286047002.2,N
1673889575.0,286046999.7,N
1673889575.9,286046999.7,N
1673889595.8,286046999.8,N
1673889615.6,286047001.8,N
1673889635.4,286047001.8,N
1673889655.2,286047001.4,N
1673889675.1,286047004.1,Y
1673889676.0,286047004.1,P
1673889695.8,286047000.2,N
1673889715.7,286047002.3,N
1673889735.5,286047002.8,N
1673889755.3,286047001.4,N
1673889775.2,286047001.6,N
1673889795.9,286047003.9,Y
1673889815.7,286047002.3,P
1673889835.6,286047000.4,N
1673889855.4,286046998.1,N
1673889875.2,286047000.0,N
1673889895.1,286046999.9,N
1673889896.0,286046999.9,N
1673889915.8,286047002.3,N
1673889935.6,286047002.3,N
1673889955.5,286047001.2,N
1673889975.3,286047000.0,N
1673889995.1,286047000.9,N
1673890015.9,286047000.5,N
1673890035.7,286047002.4,N
1673890055.5,286047000.2,N
1673890075.4,286047000.9,N
1673890095.2,286046999.9,N
1673890115.0,286047000.7,N
1673890115.9,286047000.7,N
1673890135.8,286047000.7,N
1673890155.6,286046998.1,N
1673890175.4,286047000.8,N
1673890195.3,286046998.6,N
1673890215.1,286046998.4,N
1673890216.0,286046998.4,N
1673890235.8,286047000.8,N
1673890255.7,286046998.9,N
1673890275.5,286046998.3,N
1673890295.3,286046998.6,N
1673890315.2,286046998.3,N
1673890335.9,286046998.6,N
1673890355.7,286046999.0,N
1673890375.6,286046997.0,N
1673890395.4,286046999.2,N
1673890415.2,286046996.5,N
1673890435.0,286046999.2,N
1673890436.0,286046999.2,N
1673890455.8,286046997.2,N
1673890475.6,286046995.0,Y
1673890495.5,286046994.9,P
1673890545.3,286046995.5,E
1673890555.2,286046997.6,N
1673890575.1,286046998.3,P
1673890576.0,286046998.3,P
1673890595.8,286046998.1,Y
1673890615.6,286047002.7,P
1673890635.5,286046999.9,N
1673890655.3,286047000.6,N
1673890705.2,286047001.0,E
1673890715.1,286046998.2,N
1673890716.0,286046998.2,P
1673890735.8,286046998.4,P
1673890755.7,286046996.7,Y
1673890775.5,286046998.5,P
1673890795.3,286046999.3,P
1673890815.2,286046996.7,P
1673890835.9,286046997.0,Y
1673890855.7,286046998.1,P
1673890875.6,286046998.8,P
1673890895.4,286046999.6,N
1673890915.2,286046999.4,N
1673890935.1,286046996.5,Y
1673890936.0,286046996.5,P
1673890955.8,286046999.0,N
1673890975.6,286047000.4,N
1673890995.5,286046998.4,N
1673891015.3,286046998.9,N
1673891035.1,286046996.8,N
1673891055.9,286046996.8,N
1673891075.7,286046997.0,N
1673891095.5,286046996.9,N
1673891115.4,286046997.0,N
1673891135.2,286046997.7,N
1673891155.0,286046997.3,N
1673891155.9,286046997.3,N
1673891175.8,286046997.7,N
1673891195.6,286046997.4,N
1673891215.4,286046995.6,Y
1673891235.3,286046999.0,P
1673891255.1,286046998.8,N
1673891256.0,286046998.8,N
1673891275.8,286046996.7,Y
1673891295.7,286046998.2,P
1673891315.5,286046999.2,P
1673891335.3,286046999.5,N
1673891355.2,286046999.5,N
1673891375.9,286046999.6,N
1673891395.7,286046999.6,N
1673891415.6,286046997.7,Y
1673891435.4,286046998.7,P
1673891455.2,286047000.5,N
1673891475.1,286047000.9,N
1673891476.0,286047000.9,N
1673891495.8,286047011.9,Y
1673891515.6,286046996.9,P
1673891535.5,286046997.0,N
1673891555.3,286046996.5,N
1673891575.1,286046996.6,N
1673891595.9,286046996.5,N
1673891615.7,286046997.2,N
1673891635.5,286046997.8,N
1673891655.4,286046997.6,N
1673891675.2,286046997.4,N
1673891695.0,286046995.0,Y
1673891695.9,286046995.0,P
1673891715.8,286046998.7,N
1673891735.6,286046998.2,N
1673891755.4,286047000.5,N
1673891775.3,286047001.2,N
1673891795.1,286046998.8,N
1673891815.8,286046998.8,N
1673891835.7,286046999.3,N
1673891855.5,286046999.6,N
1673891875.3,286046999.5,N
1673891895.2,286046997.9,N
1673891915.9,286046994.9,Y
1673891935.7,286046996.7,P
1673891955.6,286046998.7,N
1673891975.4,286046997.3,N
1673891995.2,286046997.4,N
